| time (UTC) | temp F | wind direction | speed MPH | gust MPH | rain 1hr in | rain 24hr in | rain mn in | humidity % | barometer mb |
| 20260510033542 | 75 | 90 | 0.0 | 0.0 | 0.00 | 0.01 | 0.01 | 62 | 1007.4 |
| 20260510033041 | 76 | 81 | 0.0 | 1.0 | 0.00 | 0.01 | 0.01 | 61 | 1007.5 |
| 20260510032537 | 76 | 102 | 0.0 | 0.0 | 0.00 | 0.01 | 0.01 | 61 | 1007.3 |
| 20260510032032 | 76 | 185 | 1.0 | 2.0 | 0.00 | 0.01 | 0.01 | 61 | 1007.3 |
| 20260510031527 | 76 | 121 | 0.0 | 1.0 | 0.00 | 0.01 | 0.01 | 60 | 1007.2 |
| 20260510031023 | 77 | 100 | 0.0 | 1.0 | 0.00 | 0.01 | 0.01 | 60 | 1007.0 |
| 20260510030519 | 77 | 187 | 2.0 | 3.0 | 0.00 | 0.01 | 0.01 | 60 | 1006.9 |
| 20260510030017 | 77 | 101 | 0.0 | 1.0 | 0.00 | 0.01 | 0.01 | 60 | 1006.7 |
| 20260510025513 | 77 | 94 | 1.0 | 1.0 | 0.00 | 0.01 | 0.01 | 60 | 1006.3 |
| 20260510025011 | 77 | 210 | 1.0 | 1.0 | 0.00 | 0.01 | 0.01 | 59 | 1006.4 |
| 20260510024508 | 77 | 136 | 2.0 | 3.0 | 0.00 | 0.01 | 0.01 | 59 | 1006.3 |
| 20260510024004 | 77 | 98 | 0.0 | 1.0 | 0.00 | 0.01 | 0.01 | 59 | 1006.3 |
| 20260510023500 | 77 | 119 | 1.0 | 2.0 | 0.00 | 0.01 | 0.01 | 59 | 1006.1 |
| 20260510022957 | 78 | 107 | 1.0 | 2.0 | 0.00 | 0.01 | 0.01 | 59 | 1006.0 |
| 20260510022456 | 78 | 186 | 1.0 | 2.0 | 0.00 | 0.01 | 0.01 | 58 | 1006.0 |
| 20260510021955 | 78 | 109 | 1.0 | 1.0 | 0.00 | 0.01 | 0.01 | 58 | 1005.9 |
| 20260510021453 | 78 | 121 | 2.0 | 2.0 | 0.00 | 0.01 | 0.01 | 58 | 1005.7 |
| 20260510020950 | 78 | 146 | 1.0 | 1.0 | 0.00 | 0.01 | 0.01 | 58 | 1005.7 |
| 20260510020450 | 78 | 124 | 0.0 | 1.0 | 0.00 | 0.01 | 0.01 | 57 | 1005.4 |
| 20260510015946 | 78 | 94 | 1.0 | 1.0 | 0.00 | 0.01 | 0.01 | 57 | 1005.5 |
| 20260510015442 | 78 | 117 | 2.0 | 3.0 | 0.00 | 0.01 | 0.01 | 57 | 1005.3 |
| 20260510014937 | 79 | 203 | 2.0 | 2.0 | 0.00 | 0.01 | 0.01 | 57 | 1005.3 |
| 20260510014435 | 79 | 150 | 1.0 | 1.0 | 0.00 | 0.01 | 0.01 | 57 | 1005.1 |
| 20260510013931 | 79 | 110 | 2.0 | 2.0 | 0.00 | 0.01 | 0.01 | 57 | 1005.1 |
| 20260510013426 | 79 | 34 | 1.0 | 2.0 | 0.00 | 0.01 | 0.01 | 57 | 1005.3 |
| 20260510012922 | 79 | 96 | 1.0 | 1.0 | 0.00 | 0.01 | 0.01 | 57 | 1005.0 |
| 20260510012417 | 79 | 25 | 2.0 | 2.0 | 0.00 | 0.01 | 0.01 | 57 | 1004.9 |
| 20260510011912 | 80 | 126 | 1.0 | 1.0 | 0.00 | 0.01 | 0.01 | 56 | 1005.0 |
| 20260510011407 | 80 | 109 | 1.0 | 2.0 | 0.00 | 0.01 | 0.01 | 57 | 1005.1 |
| 20260510010904 | 80 | 154 | 1.0 | 2.0 | 0.00 | 0.01 | 0.01 | 56 | 1005.2 |
| 20260510010401 | 80 | 177 | 1.0 | 1.0 | 0.00 | 0.01 | 0.01 | 56 | 1005.3 |
| 20260510005858 | 81 | 68 | 1.0 | 2.0 | 0.00 | 0.01 | 0.01 | 55 | 1005.2 |
| 20260510005354 | 81 | 74 | 2.0 | 2.0 | 0.00 | 0.01 | 0.01 | 55 | 1005.0 |
| 20260510004852 | 81 | 220 | 4.0 | 7.0 | 0.00 | 0.01 | 0.01 | 55 | 1005.0 |
| 20260510004349 | 81 | 99 | 1.0 | 2.0 | 0.00 | 0.01 | 0.01 | 54 | 1004.9 |
| 20260510003847 | 81 | 181 | 6.0 | 8.0 | 0.00 | 0.01 | 0.01 | 54 | 1005.0 |
| 20260510003343 | 81 | 211 | 2.0 | 2.0 | 0.00 | 0.01 | 0.01 | 54 | 1005.0 |
| 20260510002842 | 82 | 230 | 2.0 | 3.0 | 0.00 | 0.01 | 0.01 | 53 | 1004.9 |
| 20260510002339 | 82 | 126 | 4.0 | 7.0 | 0.00 | 0.01 | 0.01 | 53 | 1004.7 |
| 20260510001836 | 82 | 112 | 1.0 | 1.0 | 0.00 | 0.01 | 0.01 | 53 | 1004.9 |
| 20260510001334 | 82 | 157 | 1.0 | 2.0 | 0.00 | 0.01 | 0.01 | 53 | 1004.8 |
| 20260510000830 | 82 | 131 | 1.0 | 1.0 | 0.00 | 0.01 | 0.01 | 52 | 1005.0 |
| 20260510000328 | 82 | 200 | 4.0 | 7.0 | 0.00 | 0.01 | 0.01 | 53 | 1005.1 |
| 20260509235824 | 82 | 56 | 1.0 | 1.0 | 0.00 | 0.01 | 0.01 | 54 | 1004.9 |
| 20260509235321 | 83 | 133 | 2.0 | 4.0 | 0.00 | 0.01 | 0.01 | 52 | 1004.9 |
| 20260509234817 | 83 | 189 | 1.0 | 2.0 | 0.00 | 0.01 | 0.01 | 51 | 1004.9 |
| 20260509234313 | 83 | 359 | 3.0 | 4.0 | 0.00 | 0.01 | 0.01 | 51 | 1005.2 |
| 20260509233812 | 83 | 189 | 3.0 | 4.0 | 0.00 | 0.01 | 0.01 | 51 | 1005.3 |
| 20260509233309 | 83 | 83 | 5.0 | 7.0 | 0.00 | 0.01 | 0.01 | 52 | 1005.3 |
| 20260509232805 | 82 | 172 | 9.0 | 11.0 | 0.00 | 0.01 | 0.01 | 53 | 1005.5 |
| 20260509232306 | 82 | 134 | 2.0 | 4.0 | 0.00 | 0.01 | 0.01 | 56 | 1005.4 |
| 20260509231759 | 82 | 152 | 4.0 | 4.0 | 0.05 | 0.01 | 0.01 | 57 | 1005.4 |
| 20260509231256 | 83 | 146 | 3.0 | 4.0 | 0.05 | 0.01 | 0.01 | 57 | 1005.7 |
| 20260509230754 | 82 | 105 | 3.0 | 7.0 | 0.00 | 0.00 | 0.00 | 54 | 1005.9 |
| 20260509230250 | 81 | 183 | 2.0 | 4.0 | 0.00 | 0.00 | 0.00 | 57 | 1005.8 |
| 20260509225745 | 82 | 177 | 2.0 | 3.0 | 0.00 | 0.00 | 0.00 | 57 | 1006.3 |
| 20260509225242 | 85 | 103 | 4.0 | 7.0 | 0.00 | 0.00 | 0.00 | 49 | 1006.0 |
| 20260509224737 | 85 | 160 | 2.0 | 3.0 | 0.00 | 0.00 | 0.00 | 46 | 1006.2 |
| 20260509224235 | 86 | 199 | 1.0 | 2.0 | 0.00 | 0.00 | 0.00 | 45 | 1005.9 |
| 20260509223732 | 86 | 94 | 2.0 | 3.0 | 0.00 | 0.00 | 0.00 | 45 | 1005.9 |
| 20260509223229 | 86 | 120 | 1.0 | 1.0 | 0.00 | 0.00 | 0.00 | 45 | 1006.0 |
| 20260509222725 | 87 | 127 | 2.0 | 2.0 | 0.00 | 0.00 | 0.00 | 44 | 1005.9 |
| 20260509222221 | 89 | 125 | 6.0 | 8.0 | 0.00 | 0.00 | 0.00 | 42 | 1005.9 |
| 20260509221716 | 87 | 97 | 1.0 | 3.0 | 0.00 | 0.00 | 0.00 | 43 | 1006.2 |
| 20260509221213 | 88 | 96 | 1.0 | 2.0 | 0.00 | 0.00 | 0.00 | 42 | 1006.1 |
| 20260509220709 | 90 | 157 | 4.0 | 8.0 | 0.00 | 0.00 | 0.00 | 41 | 1006.4 |
| 20260509220206 | 90 | 269 | 2.0 | 2.0 | 0.00 | 0.00 | 0.00 | 41 | 1006.2 |
| 20260509215701 | 91 | 112 | 1.0 | 1.0 | 0.00 | 0.00 | 0.00 | 40 | 1006.6 |
| 20260509215158 | 91 | 180 | 1.0 | 1.0 | 0.00 | 0.00 | 0.00 | 40 | 1006.4 |
| 20260509214655 | 91 | 160 | 1.0 | 3.0 | 0.00 | 0.00 | 0.00 | 40 | 1006.3 |
| 20260509214152 | 91 | 115 | 3.0 | 3.0 | 0.00 | 0.00 | 0.00 | 41 | 1006.5 |
| 20260509213649 | 91 | 96 | 2.0 | 2.0 | 0.00 | 0.00 | 0.00 | 41 | 1006.6 |
| 20260509213144 | 91 | 56 | 1.0 | 2.0 | 0.00 | 0.00 | 0.00 | 41 | 1006.7 |
| 20260509212642 | 91 | 196 | 4.0 | 6.0 | 0.00 | 0.00 | 0.00 | 40 | 1006.9 |
| 20260509212139 | 90 | 205 | 2.0 | 3.0 | 0.00 | 0.00 | 0.00 | 40 | 1006.9 |
| 20260509211635 | 89 | 106 | 1.0 | 1.0 | 0.00 | 0.00 | 0.00 | 42 | 1006.9 |
| 20260509211132 | 91 | 168 | 2.0 | 3.0 | 0.00 | 0.00 | 0.00 | 41 | 1007.1 |
| 20260509210629 | 91 | 148 | 2.0 | 3.0 | 0.00 | 0.00 | 0.00 | 40 | 1007.2 |
| 20260509210125 | 90 | 164 | 0.0 | 1.0 | 0.00 | 0.00 | 0.00 | 42 | 1007.3 |
| 20260509205620 | 91 | 138 | 2.0 | 3.0 | 0.00 | 0.00 | 0.00 | 41 | 1007.4 |
| 20260509205115 | 90 | 66 | 0.0 | 1.0 | 0.00 | 0.00 | 0.00 | 42 | 1007.5 |
| 20260509204611 | 91 | 206 | 3.0 | 4.0 | 0.00 | 0.00 | 0.00 | 41 | 1007.6 |
| 20260509204108 | 90 | 170 | 2.0 | 2.0 | 0.00 | 0.00 | 0.00 | 42 | 1007.7 |
| 20260509203604 | 90 | 94 | 1.0 | 1.0 | 0.00 | 0.00 | 0.00 | 42 | 1008.0 |
| 20260509203103 | 90 | 160 | 2.0 | 2.0 | 0.00 | 0.00 | 0.00 | 42 | 1008.0 |
| 20260509202556 | 91 | 178 | 1.0 | 1.0 | 0.00 | 0.00 | 0.00 | 42 | 1008.1 |
| 20260509202052 | 90 | 163 | 2.0 | 4.0 | 0.00 | 0.00 | 0.00 | 42 | 1008.1 |
| 20260509201547 | 90 | 134 | 4.0 | 6.0 | 0.00 | 0.00 | 0.00 | 42 | 1008.1 |
| 20260509201045 | 89 | 184 | 2.0 | 2.0 | 0.00 | 0.00 | 0.00 | 43 | 1008.1 |
| 20260509200544 | 89 | 179 | 2.0 | 3.0 | 0.00 | 0.00 | 0.00 | 44 | 1008.5 |
| 20260509200042 | 90 | 129 | 2.0 | 2.0 | 0.00 | 0.00 | 0.00 | 43 | 1008.5 |
| 20260509195537 | 89 | 89 | 4.0 | 6.0 | 0.00 | 0.00 | 0.00 | 44 | 1008.4 |
| 20260509195037 | 89 | 107 | 1.0 | 1.0 | 0.00 | 0.00 | 0.00 | 44 | 1008.6 |
| 20260509194532 | 89 | 205 | 1.0 | 1.0 | 0.00 | 0.00 | 0.00 | 44 | 1008.6 |
| 20260509194030 | 88 | 96 | 0.0 | 0.0 | 0.00 | 0.00 | 0.00 | 45 | 1008.8 |
| 20260509193530 | 87 | 165 | 5.0 | 8.0 | 0.00 | 0.00 | 0.00 | 46 | 1008.9 |
| 20260509193027 | 89 | 161 | 2.0 | 3.0 | 0.00 | 0.00 | 0.00 | 45 | 1008.8 |
| 20260509192523 | 89 | 151 | 1.0 | 1.0 | 0.00 | 0.00 | 0.00 | 45 | 1008.9 |
| 20260509192019 | 88 | 131 | 0.0 | 0.0 | 0.00 | 0.00 | 0.00 | 46 | 1009.1 |
| 20260509191513 | 87 | 351 | 2.0 | 2.0 | 0.00 | 0.00 | 0.00 | 46 | 1009.2 |
| 20260509191009 | 87 | 176 | 3.0 | 6.0 | 0.00 | 0.00 | 0.00 | 45 | 1009.4 |
| 20260509190506 | 87 | 159 | 3.0 | 4.0 | 0.00 | 0.00 | 0.00 | 46 | 1009.4 |
| 20260509190005 | 87 | 189 | 2.0 | 2.0 | 0.00 | 0.00 | 0.00 | 45 | 1009.3 |
| 20260509185501 | 87 | 162 | 1.0 | 2.0 | 0.00 | 0.00 | 0.00 | 45 | 1009.4 |
| 20260509184958 | 88 | 116 | 1.0 | 1.0 | 0.00 | 0.00 | 0.00 | 44 | 1009.7 |
| 20260509184456 | 87 | 99 | 0.0 | 0.0 | 0.00 | 0.00 | 0.00 | 44 | 1009.8 |
| 20260509183952 | 87 | 118 | 0.0 | 1.0 | 0.00 | 0.00 | 0.00 | 45 | 1009.9 |
| 20260509183447 | 87 | 193 | 2.0 | 2.0 | 0.00 | 0.00 | 0.00 | 46 | 1010.0 |
| 20260509182943 | 87 | 156 | 1.0 | 2.0 | 0.00 | 0.00 | 0.00 | 46 | 1010.2 |
| 20260509182439 | 86 | 239 | 2.0 | 3.0 | 0.00 | 0.00 | 0.00 | 47 | 1010.2 |
| 20260509181937 | 87 | 147 | 1.0 | 2.0 | 0.00 | 0.00 | 0.00 | 45 | 1010.3 |
| 20260509181435 | 87 | 136 | 1.0 | 1.0 | 0.00 | 0.00 | 0.00 | 45 | 1010.3 |
| 20260509180932 | 87 | 104 | 0.0 | 1.0 | 0.00 | 0.00 | 0.00 | 46 | 1010.5 |
| 20260509180427 | 86 | 138 | 0.0 | 1.0 | 0.00 | 0.00 | 0.00 | 48 | 1010.5 |
| 20260509175924 | 86 | 159 | 1.0 | 2.0 | 0.00 | 0.00 | 0.00 | 46 | 1010.7 |
| 20260509175421 | 84 | 105 | 1.0 | 1.0 | 0.00 | 0.00 | 0.00 | 51 | 1010.6 |
| 20260509174918 | 85 | 112 | 0.0 | 0.0 | 0.00 | 0.00 | 0.00 | 49 | 1010.7 |
| 20260509174414 | 84 | 102 | 0.0 | 1.0 | 0.00 | 0.00 | 0.00 | 49 | 1010.8 |
| 20260509173910 | 84 | 106 | 1.0 | 2.0 | 0.00 | 0.00 | 0.00 | 49 | 1011.0 |
| 20260509173409 | 84 | 141 | 0.0 | 1.0 | 0.00 | 0.00 | 0.00 | 50 | 1010.8 |
| 20260509172906 | 82 | 121 | 1.0 | 1.0 | 0.00 | 0.00 | 0.00 | 51 | 1011.0 |
| 20260509172403 | 83 | 128 | 0.0 | 1.0 | 0.00 | 0.00 | 0.00 | 50 | 1011.1 |
| 20260509171858 | 83 | 67 | 1.0 | 1.0 | 0.00 | 0.00 | 0.00 | 51 | 1011.1 |
| 20260509171355 | 84 | 94 | 0.0 | 0.0 | 0.00 | 0.00 | 0.00 | 50 | 1011.5 |
| 20260509170851 | 84 | 115 | 0.0 | 1.0 | 0.00 | 0.00 | 0.00 | 49 | 1011.2 |
| 20260509170348 | 83 | 105 | 1.0 | 1.0 | 0.00 | 0.00 | 0.00 | 50 | 1011.5 |
| 20260509165848 | 83 | 112 | 0.0 | 0.0 | 0.00 | 0.00 | 0.00 | 51 | 1011.5 |
| 20260509165342 | 83 | 96 | 1.0 | 1.0 | 0.00 | 0.00 | 0.00 | 52 | 1011.7 |
| 20260509164838 | 83 | 136 | 1.0 | 2.0 | 0.00 | 0.00 | 0.00 | 50 | 1011.7 |
| 20260509164335 | 82 | 89 | 0.0 | 1.0 | 0.00 | 0.00 | 0.00 | 52 | 1011.8 |
| 20260509163831 | 81 | 126 | 0.0 | 0.0 | 0.00 | 0.00 | 0.00 | 53 | 1011.7 |
| 20260509163328 | 81 | 82 | 0.0 | 0.0 | 0.00 | 0.00 | 0.00 | 54 | 1011.8 |
| 20260509162828 | 82 | 356 | 0.0 | 1.0 | 0.00 | 0.00 | 0.00 | 52 | 1012.0 |
| 20260509162325 | 81 | 133 | 1.0 | 1.0 | 0.00 | 0.00 | 0.00 | 53 | 1012.2 |
| 20260509161822 | 82 | 89 | 0.0 | 1.0 | 0.00 | 0.00 | 0.00 | 51 | 1011.9 |
| 20260509161319 | 82 | 118 | 0.0 | 1.0 | 0.00 | 0.00 | 0.00 | 51 | 1012.1 |
| 20260509160814 | 83 | 92 | 0.0 | 1.0 | 0.00 | 0.00 | 0.00 | 52 | 1011.8 |
| 20260509160310 | 81 | 112 | 0.0 | 0.0 | 0.00 | 0.00 | 0.00 | 54 | 1012.0 |
| 20260509155806 | 81 | 164 | 1.0 | 1.0 | 0.00 | 0.00 | 0.00 | 54 | 1012.0 |
| 20260509155306 | 79 | 122 | 0.0 | 0.0 | 0.00 | 0.00 | 0.00 | 57 | 1012.0 |
| 20260509154758 | 80 | 128 | 0.0 | 0.0 | 0.00 | 0.00 | 0.00 | 54 | 1012.0 |
| 20260509154256 | 78 | 124 | 0.0 | 0.0 | 0.00 | 0.00 | 0.00 | 57 | 1012.0 |
| 20260509153753 | 80 | 80 | 0.0 | 0.0 | 0.00 | 0.00 | 0.00 | 54 | 1012.0 |
| 20260509153248 | 79 | 115 | 0.0 | 0.0 | 0.00 | 0.00 | 0.00 | 56 | 1012.1 |
| 20260509152745 | 80 | 163 | 2.0 | 2.0 | 0.00 | 0.00 | 0.00 | 55 | 1012.3 |
| 20260509152242 | 77 | 113 | 0.0 | 1.0 | 0.00 | 0.00 | 0.00 | 58 | 1012.5 |
| 20260509151739 | 78 | 127 | 0.0 | 1.0 | 0.00 | 0.00 | 0.00 | 58 | 1012.0 |
| 20260509151235 | 78 | 196 | 1.0 | 1.0 | 0.00 | 0.00 | 0.00 | 58 | 1012.1 |
| 20260509150734 | 78 | 121 | 0.0 | 0.0 | 0.00 | 0.00 | 0.00 | 59 | 1012.0 |
| 20260509150232 | 77 | 117 | 0.0 | 0.0 | 0.00 | 0.00 | 0.00 | 60 | 1012.1 |
| 20260509145729 | 77 | 113 | 1.0 | 1.0 | 0.00 | 0.00 | 0.00 | 60 | 1012.3 |
| 20260509145228 | 76 | 155 | 2.0 | 2.0 | 0.00 | 0.00 | 0.00 | 62 | 1012.2 |
| 20260509144725 | 75 | 81 | 0.0 | 0.0 | 0.00 | 0.00 | 0.00 | 64 | 1012.1 |
| 20260509144222 | 73 | 187 | 1.0 | 1.0 | 0.00 | 0.00 | 0.00 | 66 | 1012.2 |
| 20260509143719 | 74 | 124 | 2.0 | 2.0 | 0.00 | 0.00 | 0.00 | 64 | 1012.5 |
| 20260509143217 | 74 | 134 | 1.0 | 1.0 | 0.00 | 0.00 | 0.00 | 66 | 1012.5 |
| 20260509142712 | 73 | 139 | 0.0 | 1.0 | 0.00 | 0.00 | 0.00 | 67 | 1012.3 |
| 20260509142209 | 72 | 132 | 0.0 | 0.0 | 0.00 | 0.00 | 0.00 | 68 | 1012.2 |
| 20260509141704 | 72 | 113 | 1.0 | 2.0 | 0.00 | 0.00 | 0.00 | 69 | 1012.5 |
| 20260509141202 | 71 | 130 | 0.0 | 0.0 | 0.00 | 0.00 | 0.00 | 69 | 1012.7 |
| 20260509140658 | 70 | 175 | 1.0 | 2.0 | 0.00 | 0.00 | 0.00 | 72 | 1012.5 |
| 20260509140156 | 69 | 78 | 0.0 | 0.0 | 0.00 | 0.00 | 0.00 | 73 | 1012.5 |
| 20260509135653 | 69 | 97 | 0.0 | 0.0 | 0.00 | 0.00 | 0.00 | 74 | 1012.5 |
| 20260509135151 | 68 | 90 | 0.0 | 0.0 | 0.00 | 0.00 | 0.00 | 76 | 1012.5 |
| 20260509134647 | 68 | 81 | 0.0 | 0.0 | 0.00 | 0.00 | 0.00 | 75 | 1012.5 |
| 20260509134145 | 69 | 94 | 0.0 | 0.0 | 0.00 | 0.00 | 0.00 | 74 | 1012.3 |
| 20260509133642 | 67 | 119 | 0.0 | 0.0 | 0.00 | 0.00 | 0.00 | 77 | 1012.2 |
| 20260509133139 | 66 | 107 | 0.0 | 0.0 | 0.00 | 0.00 | 0.00 | 79 | 1012.2 |
| 20260509132637 | 64 | 117 | 0.0 | 0.0 | 0.00 | 0.00 | 0.00 | 82 | 1012.5 |
| 20260509132135 | 63 | 113 | 1.0 | 1.0 | 0.00 | 0.00 | 0.00 | 85 | 1012.2 |
| 20260509131631 | 62 | 114 | 0.0 | 0.0 | 0.00 | 0.00 | 0.00 | 88 | 1012.3 |
| 20260509131128 | 61 | 108 | 0.0 | 0.0 | 0.00 | 0.00 | 0.00 | 89 | 1012.5 |
| 20260509130624 | 60 | 120 | 0.0 | 0.0 | 0.00 | 0.00 | 0.00 | 90 | 1012.2 |
| 20260509130121 | 59 | 130 | 0.0 | 0.0 | 0.00 | 0.00 | 0.00 | 91 | 1012.5 |
| 20260509125617 | 59 | 122 | 0.0 | 0.0 | 0.00 | 0.00 | 0.00 | 92 | 1012.1 |
| 20260509125114 | 59 | 126 | 0.0 | 0.0 | 0.00 | 0.00 | 0.00 | 92 | 1012.1 |
| 20260509124610 | 58 | 129 | 0.0 | 0.0 | 0.00 | 0.00 | 0.00 | 92 | 1012.0 |
| 20260509124108 | 58 | 135 | 0.0 | 0.0 | 0.00 | 0.00 | 0.00 | 92 | 1012.1 |
| 20260509123606 | 58 | 130 | 0.0 | 0.0 | 0.00 | 0.00 | 0.00 | 92 | 1011.9 |
| 20260509123102 | 58 | 120 | 0.0 | 0.0 | 0.00 | 0.00 | 0.00 | 92 | 1011.9 |
| 20260509122558 | 57 | 133 | 0.0 | 0.0 | 0.00 | 0.00 | 0.00 | 92 | 1012.0 |
| 20260509122056 | 57 | 131 | 0.0 | 0.0 | 0.00 | 0.00 | 0.00 | 92 | 1012.0 |
| 20260509121552 | 57 | 127 | 0.0 | 0.0 | 0.00 | 0.00 | 0.00 | 92 | 1011.7 |
| 20260509121049 | 57 | 138 | 0.0 | 0.0 | 0.00 | 0.00 | 0.00 | 92 | 1011.6 |
| 20260509120547 | 57 | 110 | 0.0 | 0.0 | 0.00 | 0.00 | 0.00 | 92 | 1011.6 |
| 20260509120046 | 57 | 117 | 0.0 | 0.0 | 0.00 | 0.00 | 0.00 | 92 | 1011.6 |
| 20260509115542 | 57 | 119 | 0.0 | 0.0 | 0.00 | 0.00 | 0.00 | 92 | 1011.6 |
| 20260509115040 | 57 | 131 | 0.0 | 0.0 | 0.00 | 0.00 | 0.00 | 92 | 1011.5 |
| 20260509114538 | 57 | 126 | 0.0 | 0.0 | 0.00 | 0.00 | 0.00 | 92 | 1011.6 |
| 20260509114037 | 57 | 153 | 0.0 | 0.0 | 0.00 | 0.00 | 0.00 | 92 | 1011.4 |
| 20260509113534 | 57 | 133 | 0.0 | 0.0 | 0.00 | 0.00 | 0.00 | 91 | 1011.4 |
| 20260509113032 | 57 | 152 | 0.0 | 0.0 | 0.00 | 0.00 | 0.00 | 91 | 1011.5 |
| 20260509112528 | 58 | 130 | 0.0 | 0.0 | 0.00 | 0.00 | 0.00 | 91 | 1011.2 |
| 20260509112025 | 58 | 134 | 0.0 | 0.0 | 0.00 | 0.00 | 0.00 | 91 | 1011.1 |
| 20260509111522 | 58 | 131 | 0.0 | 0.0 | 0.00 | 0.00 | 0.00 | 91 | 1011.2 |
| 20260509111019 | 58 | 131 | 0.0 | 0.0 | 0.00 | 0.00 | 0.00 | 91 | 1010.9 |
| 20260509110516 | 58 | 134 | 0.0 | 0.0 | 0.00 | 0.00 | 0.00 | 90 | 1010.8 |
| 20260509110013 | 59 | 121 | 0.0 | 0.0 | 0.00 | 0.00 | 0.00 | 91 | 1010.6 |
| 20260509105512 | 59 | 113 | 0.0 | 0.0 | 0.00 | 0.00 | 0.00 | 90 | 1010.7 |
| 20260509105009 | 59 | 119 | 0.0 | 0.0 | 0.00 | 0.00 | 0.00 | 90 | 1010.9 |
| 20260509104505 | 59 | 117 | 0.0 | 0.0 | 0.00 | 0.00 | 0.00 | 90 | 1010.8 |
| 20260509104002 | 59 | 117 | 0.0 | 0.0 | 0.00 | 0.00 | 0.00 | 90 | 1010.7 |
| 20260509103500 | 59 | 119 | 0.0 | 0.0 | 0.00 | 0.00 | 0.00 | 90 | 1010.7 |
| 20260509102958 | 59 | 116 | 0.0 | 0.0 | 0.00 | 0.00 | 0.00 | 90 | 1010.6 |
| 20260509102455 | 59 | 114 | 0.0 | 0.0 | 0.00 | 0.00 | 0.00 | 90 | 1010.7 |
| 20260509101951 | 59 | 126 | 0.0 | 0.0 | 0.00 | 0.00 | 0.00 | 90 | 1010.5 |
| 20260509101448 | 59 | 117 | 0.0 | 0.0 | 0.00 | 0.00 | 0.00 | 90 | 1010.4 |
| 20260509100945 | 59 | 118 | 0.0 | 0.0 | 0.00 | 0.00 | 0.00 | 89 | 1010.5 |
| 20260509100442 | 59 | 114 | 0.0 | 0.0 | 0.00 | 0.00 | 0.00 | 89 | 1010.1 |
| 20260509095939 | 59 | 113 | 0.0 | 0.0 | 0.00 | 0.00 | 0.00 | 89 | 1010.0 |
| 20260509095436 | 59 | 105 | 0.0 | 0.0 | 0.00 | 0.00 | 0.00 | 89 | 1009.9 |
| 20260509094933 | 59 | 119 | 0.0 | 0.0 | 0.00 | 0.00 | 0.00 | 89 | 1010.1 |
| 20260509094429 | 59 | 119 | 0.0 | 0.0 | 0.00 | 0.00 | 0.00 | 88 | 1010.0 |
| 20260509093927 | 59 | 112 | 0.0 | 0.0 | 0.00 | 0.00 | 0.00 | 88 | 1009.9 |
| 20260509093424 | 59 | 122 | 0.0 | 0.0 | 0.00 | 0.00 | 0.00 | 87 | 1009.8 |
| 20260509092923 | 59 | 121 | 0.0 | 0.0 | 0.00 | 0.00 | 0.00 | 87 | 1009.9 |
| 20260509092420 | 59 | 121 | 0.0 | 0.0 | 0.00 | 0.00 | 0.00 | 86 | 1010.1 |
| 20260509091919 | 59 | 116 | 0.0 | 0.0 | 0.00 | 0.00 | 0.00 | 86 | 1010.2 |
| 20260509091415 | 59 | 117 | 0.0 | 0.0 | 0.00 | 0.00 | 0.00 | 86 | 1010.2 |
| 20260509090912 | 59 | 120 | 0.0 | 0.0 | 0.00 | 0.00 | 0.00 | 86 | 1010.2 |
| 20260509090409 | 59 | 122 | 0.0 | 0.0 | 0.00 | 0.00 | 0.00 | 86 | 1010.3 |
| 20260509085907 | 59 | 116 | 0.0 | 0.0 | 0.00 | 0.00 | 0.00 | 86 | 1010.3 |
| 20260509085404 | 59 | 121 | 0.0 | 0.0 | 0.00 | 0.00 | 0.00 | 86 | 1010.1 |
| 20260509084900 | 59 | 121 | 0.0 | 0.0 | 0.00 | 0.00 | 0.00 | 86 | 1010.2 |
| 20260509084357 | 59 | 117 | 0.0 | 0.0 | 0.00 | 0.00 | 0.00 | 86 | 1010.3 |
| 20260509083855 | 59 | 122 | 0.0 | 0.0 | 0.00 | 0.00 | 0.00 | 86 | 1010.2 |
| 20260509083351 | 60 | 110 | 0.0 | 0.0 | 0.00 | 0.00 | 0.00 | 86 | 1010.4 |
| 20260509082848 | 60 | 118 | 0.0 | 0.0 | 0.00 | 0.00 | 0.00 | 85 | 1010.4 |
| 20260509082345 | 60 | 114 | 0.0 | 0.0 | 0.00 | 0.00 | 0.00 | 85 | 1010.3 |
| 20260509081842 | 60 | 123 | 0.0 | 0.0 | 0.00 | 0.00 | 0.00 | 84 | 1010.4 |
| 20260509081339 | 60 | 131 | 0.0 | 0.0 | 0.00 | 0.00 | 0.00 | 84 | 1010.4 |
| 20260509080837 | 60 | 108 | 0.0 | 0.0 | 0.00 | 0.00 | 0.00 | 84 | 1010.5 |
| 20260509080335 | 60 | 134 | 0.0 | 0.0 | 0.00 | 0.00 | 0.00 | 83 | 1010.5 |
| 20260509075833 | 61 | 126 | 0.0 | 0.0 | 0.00 | 0.00 | 0.00 | 83 | 1010.7 |
| 20260509075330 | 61 | 111 | 0.0 | 0.0 | 0.00 | 0.00 | 0.00 | 83 | 1010.5 |
| 20260509074827 | 61 | 123 | 0.0 | 0.0 | 0.00 | 0.00 | 0.00 | 83 | 1010.5 |
| 20260509074324 | 61 | 122 | 0.0 | 0.0 | 0.00 | 0.00 | 0.00 | 82 | 1010.7 |
| 20260509073820 | 61 | 126 | 0.0 | 0.0 | 0.00 | 0.00 | 0.00 | 82 | 1010.7 |
| 20260509073317 | 61 | 132 | 0.0 | 0.0 | 0.00 | 0.00 | 0.00 | 82 | 1011.0 |
| 20260509072814 | 61 | 121 | 0.0 | 0.0 | 0.00 | 0.00 | 0.00 | 82 | 1010.8 |
| 20260509072310 | 62 | 124 | 0.0 | 0.0 | 0.00 | 0.00 | 0.00 | 82 | 1010.8 |
| 20260509071807 | 62 | 132 | 1.0 | 1.0 | 0.00 | 0.00 | 0.00 | 82 | 1010.7 |
| 20260509071304 | 62 | 178 | 0.0 | 1.0 | 0.00 | 0.00 | 0.00 | 81 | 1010.8 |
| 20260509070801 | 62 | 132 | 1.0 | 2.0 | 0.00 | 0.00 | 0.00 | 80 | 1010.9 |
| 20260509070257 | 63 | 176 | 1.0 | 1.0 | 0.00 | 0.00 | 0.00 | 78 | 1010.9 |
| 20260509065754 | 64 | 150 | 1.0 | 2.0 | 0.00 | 0.00 | 0.00 | 74 | 1010.7 |
| 20260509065250 | 65 | 81 | 1.0 | 2.0 | 0.00 | 0.00 | 0.00 | 72 | 1010.7 |
| 20260509064746 | 65 | 176 | 1.0 | 1.0 | 0.00 | 0.00 | 0.00 | 70 | 1010.6 |
| 20260509064244 | 65 | 137 | 0.0 | 0.0 | 0.00 | 0.00 | 0.00 | 70 | 1010.6 |
| 20260509063741 | 65 | 127 | 0.0 | 0.0 | 0.00 | 0.00 | 0.00 | 70 | 1010.6 |
| 20260509063237 | 66 | 127 | 0.0 | 0.0 | 0.00 | 0.00 | 0.00 | 70 | 1010.8 |
| 20260509062735 | 66 | 133 | 0.0 | 0.0 | 0.00 | 0.00 | 0.00 | 71 | 1010.9 |
| 20260509062232 | 66 | 133 | 0.0 | 0.0 | 0.00 | 0.00 | 0.00 | 71 | 1010.8 |
| 20260509061729 | 66 | 144 | 0.0 | 0.0 | 0.00 | 0.00 | 0.00 | 71 | 1010.7 |
| 20260509061227 | 66 | 138 | 0.0 | 0.0 | 0.00 | 0.00 | 0.00 | 72 | 1010.8 |
| 20260509060724 | 66 | 149 | 0.0 | 0.0 | 0.00 | 0.00 | 0.00 | 72 | 1010.7 |
| 20260509060220 | 66 | 129 | 0.0 | 0.0 | 0.00 | 0.00 | 0.00 | 72 | 1010.8 |
| 20260509055716 | 66 | 140 | 1.0 | 1.0 | 0.00 | 0.00 | 0.00 | 73 | 1010.7 |
| 20260509055212 | 66 | 147 | 1.0 | 1.0 | 0.00 | 0.00 | 0.00 | 74 | 1010.7 |
| 20260509054708 | 66 | 140 | 0.0 | 0.0 | 0.00 | 0.00 | 0.00 | 75 | 1010.9 |
| 20260509054206 | 66 | 148 | 1.0 | 1.0 | 0.00 | 0.00 | 0.00 | 75 | 1010.8 |
| 20260509053704 | 66 | 161 | 0.0 | 1.0 | 0.00 | 0.00 | 0.00 | 77 | 1010.9 |
| 20260509053201 | 66 | 166 | 0.0 | 1.0 | 0.00 | 0.00 | 0.00 | 80 | 1011.1 |
| 20260509052659 | 66 | 157 | 1.0 | 1.0 | 0.00 | 0.00 | 0.00 | 82 | 1011.0 |
| 20260509052156 | 66 | 136 | 0.0 | 0.0 | 0.00 | 0.00 | 0.00 | 82 | 1010.9 |
| 20260509051654 | 66 | 125 | 0.0 | 0.0 | 0.00 | 0.00 | 0.00 | 82 | 1010.9 |
| 20260509051151 | 66 | 146 | 0.0 | 0.0 | 0.00 | 0.00 | 0.00 | 82 | 1010.8 |
| 20260509050648 | 66 | 132 | 1.0 | 1.0 | 0.00 | 0.00 | 0.00 | 83 | 1010.9 |
| 20260509050144 | 66 | 136 | 0.0 | 0.0 | 0.00 | 0.00 | 0.00 | 82 | 1010.8 |
| 20260509045642 | 66 | 106 | 2.0 | 2.0 | 0.00 | 0.00 | 0.00 | 82 | 1011.1 |
| 20260509045138 | 67 | 174 | 0.0 | 0.0 | 0.00 | 0.00 | 0.00 | 81 | 1011.2 |
| 20260509044636 | 67 | 170 | 1.0 | 2.0 | 0.00 | 0.00 | 0.00 | 82 | 1011.0 |
| 20260509044133 | 67 | 131 | 0.0 | 0.0 | 0.00 | 0.00 | 0.00 | 81 | 1010.8 |
| 20260509043629 | 67 | 131 | 0.0 | 1.0 | 0.00 | 0.00 | 0.00 | 81 | 1010.8 |
| 20260509043125 | 67 | 160 | 2.0 | 3.0 | 0.00 | 0.00 | 0.00 | 81 | 1010.8 |
| 20260509042622 | 67 | 144 | 0.0 | 1.0 | 0.00 | 0.00 | 0.00 | 81 | 1010.9 |
| 20260509042118 | 67 | 141 | 2.0 | 2.0 | 0.00 | 0.00 | 0.00 | 81 | 1010.6 |
| 20260509041615 | 68 | 139 | 1.0 | 1.0 | 0.00 | 0.00 | 0.00 | 81 | 1010.6 |
| 20260509041112 | 68 | 180 | 1.0 | 1.0 | 0.00 | 0.00 | 0.00 | 81 | 1010.6 |
| 20260509040611 | 69 | 168 | 1.0 | 2.0 | 0.00 | 0.00 | 0.00 | 79 | 1010.6 |
| 20260509040107 | 70 | 132 | 1.0 | 1.0 | 0.00 | 0.00 | 0.00 | 77 | 1010.4 |
| 20260509035604 | 71 | 236 | 0.0 | 1.0 | 0.00 | 0.00 | 0.00 | 77 | 1010.1 |
| 20260509035100 | 71 | 129 | 1.0 | 2.0 | 0.00 | 0.00 | 0.00 | 76 | 1009.9 |
| 20260509034559 | 73 | 88 | 1.0 | 2.0 | 0.00 | 0.00 | 0.00 | 75 | 1010.2 |
| 20260509034055 | 73 | 96 | 0.0 | 0.0 | 0.00 | 0.00 | 0.00 | 79 | 1009.9 |